Overview Statistics Trail Chart Weather Telemetry Raw packets
 

This is the latest recevied weather packets stored in our database for station/object OE6ACM-10. If no packets are shown the sender has not sent any weather packets the latest 10 day(s).

<< 82 83 84 85 86 87 88 >>
Time Temp. Humidity Pressure Rain* Wind** Luminosity Snow
1788094887 41.11° C 64% 927.9 hPa - - - -
1788094587 41.11° C 66% 927.9 hPa - - - -
1788094287 40.56° C 58% 927.9 hPa - - - -
1788093987 41.11° C 53% 928 hPa - - - -
1788093687 41.67° C 61% 928 hPa - - - -
1788093387 40.56° C 69% 928.1 hPa - - - -
1788093087 40.56° C 69% 928 hPa - - - -
1788092787 39.44° C 77% 928.1 hPa - - - -
1788092487 39.44° C 81% 928.2 hPa - - - -
1788092187 38.33° C 100% 928.2 hPa - - - -
1788091887 37.22° C 100% 928.2 hPa - - - -
1788091587 36.67° C 100% 928.3 hPa - - - -
1788091287 35.56° C 100% 928.3 hPa - - - -
1788090987 35° C 100% 928.4 hPa - - - -
1788090687 34.44° C 100% 928.4 hPa - - - -
1788090387 32.78° C 100% 928.5 hPa - - - -
1788090087 31.67° C 100% 928.5 hPa - - - -
1788089787 31.11° C 100% 928.6 hPa - - - -
1788089487 31.11° C 100% 928.6 hPa - - - -
1788089187 30.56° C 100% 928.7 hPa - - - -
1788088887 30.56° C 100% 928.8 hPa - - - -
1788088587 30.56° C 100% 928.8 hPa - - - -
1788088287 30.56° C 100% 928.9 hPa - - - -
1788087987 30° C 100% 928.9 hPa - - - -
1788087687 30° C 100% 928.9 hPa - - - -

* Rain since midnight (hover to see other rain measurements)
** Current wind speed in m/s (hover to see current wind gust speed)